PWSweather.com
Personal Weather Stations
Station Observations
KNCCHINA3
Red Tractor Trail, China Grove, NC 28023

Red Tractor TrailChina Grove, NC 28023

Lat: 35.59751, Lon: -80.60201

Elevation: 800

Station Type: Oregon Scientific WMR 968

http://www.joesweathergarage.com

Latest ConditionsUpdated 2:29:13 AM EST Wednesday, Nov 26, 2014
Currently Today's Max Today's Min Today's Average
Temperature 44.8°F7.1°C 47.5°F8.6°C 44.8°F7.1°C 46.1°F7.8°C
Dew Point 44.8°F7.1°C 47.5°F8.6°C 44.8°F7.1°C 46.1°F7.8°C
Winds 6.1 mph NNE9.8 kmh NNE 11.2 mph NE18.0 kmh NE - 6.4 mph 10.3 kmh
Wind Gusts 11.6 mph18.7 kmh 15.6 mph25.1 kmh - -
Humidity 100% 100% 100% 100%
Pressure 29.97 in1014.9 mb 30.06 in1017.9 mb 29.97 in1014.9 mb -
Precipitation - 0.13 in3.3 mm - -
Hour Temp Dew Point Humidity Winds Wind Gusts Pressure Precip Precip Rate Daily Precip Total
02:29 AM 44.8°F7.1°C 44.8°F7.1°C 100% 6.1 mph NNE9.8 kmh NNE 11.6 mph18.7 kmh 29.97 in1014.9 mb 0.00 in0.0 mm 0.00 in/hr0.0 mm/hr 0.13 in3.3 mm
02:24 AM 44.8°F7.1°C 44.8°F7.1°C 100% 8.0 mph NE12.9 kmh NE 15.6 mph25.1 kmh 29.97 in1014.9 mb 0.04 in1.0 mm 0.00 in/hr0.0 mm/hr 0.13 in3.3 mm
02:19 AM 44.8°F7.1°C 44.8°F7.1°C 100% 9.1 mph NE14.6 kmh NE 15.6 mph25.1 kmh 29.97 in1014.9 mb 0.04 in1.0 mm 0.00 in/hr0.0 mm/hr 0.13 in3.3 mm
02:14 AM 45.0°F7.2°C 45.0°F7.2°C 100% 11.2 mph NE18.0 kmh NE 15.6 mph25.1 kmh 29.97 in1014.9 mb 0.04 in1.0 mm 0.00 in/hr0.0 mm/hr 0.13 in3.3 mm
02:09 AM 45.0°F7.2°C 45.0°F7.2°C 100% 9.9 mph NNE15.9 kmh NNE 13.8 mph22.2 kmh 30.00 in1015.9 mb 0.04 in1.0 mm 0.00 in/hr0.0 mm/hr 0.13 in3.3 mm
02:04 AM 45.1°F7.3°C 45.1°F7.3°C 100% 8.5 mph NNE13.7 kmh NNE 11.6 mph18.7 kmh 30.00 in1015.9 mb 0.04 in1.0 mm 0.00 in/hr0.0 mm/hr 0.13 in3.3 mm
01:58 AM 45.3°F7.4°C 45.3°F7.4°C 100% 8.9 mph NNE14.3 kmh NNE 11.6 mph18.7 kmh 30.00 in1015.9 mb 0.04 in1.0 mm 0.48 in/hr12.2 mm/hr 0.13 in3.3 mm
01:53 AM 45.3°F7.4°C 45.3°F7.4°C 100% 8.5 mph NNE13.7 kmh NNE 10.8 mph17.4 kmh 29.97 in1014.9 mb 0.00 in0.0 mm 0.00 in/hr0.0 mm/hr 0.09 in2.3 mm
01:48 AM 45.5°F7.5°C 45.5°F7.5°C 100% 6.1 mph NNE9.8 kmh NNE 8.0 mph12.9 kmh 29.97 in1014.9 mb 0.00 in0.0 mm 0.00 in/hr0.0 mm/hr 0.09 in2.3 mm
01:43 AM 45.5°F7.5°C 45.5°F7.5°C 100% 3.6 mph NNE5.8 kmh NNE 12.0 mph19.3 kmh 29.97 in1014.9 mb 0.00 in0.0 mm 0.00 in/hr0.0 mm/hr 0.09 in2.3 mm
01:38 AM 45.5°F7.5°C 45.5°F7.5°C 100% 8.0 mph NNE12.9 kmh NNE 12.0 mph19.3 kmh 29.97 in1014.9 mb 0.00 in0.0 mm 0.00 in/hr0.0 mm/hr 0.09 in2.3 mm
01:33 AM 45.7°F7.6°C 45.7°F7.6°C 100% 5.5 mph NNE8.9 kmh NNE 7.6 mph12.2 kmh 29.97 in1014.9 mb 0.00 in0.0 mm 0.00 in/hr0.0 mm/hr 0.09 in2.3 mm
01:28 AM 45.9°F7.7°C 45.9°F7.7°C 100% 5.5 mph NNE8.9 kmh NNE 9.0 mph14.5 kmh 29.97 in1014.9 mb 0.00 in0.0 mm 0.00 in/hr0.0 mm/hr 0.09 in2.3 mm
01:23 AM 45.9°F7.7°C 45.9°F7.7°C 100% 3.5 mph NNE5.6 kmh NNE 12.6 mph20.3 kmh 29.97 in1014.9 mb 0.04 in1.0 mm 0.48 in/hr12.2 mm/hr 0.09 in2.3 mm
01:18 AM 46.0°F7.8°C 46.0°F7.8°C 100% 7.4 mph NNE11.9 kmh NNE 12.6 mph20.3 kmh 29.97 in1014.9 mb 0.00 in0.0 mm 0.00 in/hr0.0 mm/hr 0.05 in1.3 mm
01:13 AM 46.2°F7.9°C 46.2°F7.9°C 100% 6.7 mph NNE10.8 kmh NNE 11.6 mph18.7 kmh 29.97 in1014.9 mb 0.00 in0.0 mm 0.00 in/hr0.0 mm/hr 0.05 in1.3 mm
01:07 AM 46.2°F7.9°C 46.2°F7.9°C 100% 7.0 mph NNE11.3 kmh NNE 11.6 mph18.7 kmh 30.03 in1016.9 mb 0.00 in0.0 mm 0.00 in/hr0.0 mm/hr 0.05 in1.3 mm
01:02 AM 46.4°F8.0°C 46.4°F8.0°C 100% 6.5 mph NNE10.5 kmh NNE 9.8 mph15.8 kmh 30.03 in1016.9 mb 0.00 in0.0 mm 0.00 in/hr0.0 mm/hr 0.05 in1.3 mm
12:57 AM 46.4°F8.0°C 46.4°F8.0°C 100% 4.5 mph NNE7.2 kmh NNE 9.8 mph15.8 kmh 30.03 in1016.9 mb 0.00 in0.0 mm 0.00 in/hr0.0 mm/hr 0.05 in1.3 mm
12:53 AM 46.4°F8.0°C 46.4°F8.0°C 100% 5.0 mph NNE8.0 kmh NNE 9.8 mph15.8 kmh 30.00 in1015.9 mb 0.00 in0.0 mm 0.00 in/hr0.0 mm/hr 0.05 in1.3 mm
12:47 AM 46.6°F8.1°C 46.6°F8.1°C 100% 4.7 mph NNE7.6 kmh NNE 7.2 mph11.6 kmh 30.00 in1015.9 mb 0.00 in0.0 mm 0.00 in/hr0.0 mm/hr 0.05 in1.3 mm
12:42 AM 46.6°F8.1°C 46.6°F8.1°C 100% 5.3 mph NNE8.5 kmh NNE 11.2 mph18.0 kmh 30.00 in1015.9 mb 0.00 in0.0 mm 0.00 in/hr0.0 mm/hr 0.05 in1.3 mm
12:37 AM 46.8°F8.2°C 46.8°F8.2°C 100% 6.7 mph NNE10.8 kmh NNE 11.2 mph18.0 kmh 30.06 in1017.9 mb 0.00 in0.0 mm 0.00 in/hr0.0 mm/hr 0.05 in1.3 mm
12:32 AM 46.9°F8.3°C 46.9°F8.3°C 100% 6.6 mph NNE10.6 kmh NNE 8.6 mph13.8 kmh 30.06 in1017.9 mb 0.00 in0.0 mm 0.00 in/hr0.0 mm/hr 0.05 in1.3 mm
12:27 AM 46.9°F8.3°C 46.9°F8.3°C 100% 3.4 mph NNE5.5 kmh NNE 8.0 mph12.9 kmh 30.06 in1017.9 mb 0.00 in0.0 mm 0.00 in/hr0.0 mm/hr 0.05 in1.3 mm
12:22 AM 47.1°F8.4°C 47.1°F8.4°C 100% 3.9 mph NNE6.3 kmh NNE 8.0 mph12.9 kmh 30.03 in1016.9 mb 0.08 in2.0 mm 0.00 in/hr0.0 mm/hr 0.05 in1.3 mm
12:16 AM 47.3°F8.5°C 47.3°F8.5°C 100% 5.1 mph NNE8.2 kmh NNE 9.8 mph15.8 kmh 30.03 in1016.9 mb 0.08 in2.0 mm 0.00 in/hr0.0 mm/hr 0.05 in1.3 mm
12:11 AM 47.3°F8.5°C 47.3°F8.5°C 100% 6.7 mph NNE10.8 kmh NNE 10.8 mph17.4 kmh 30.03 in1016.9 mb 0.08 in2.0 mm 0.40 in/hr10.2 mm/hr 0.05 in1.3 mm
12:05 AM 47.5°F8.6°C 47.5°F8.6°C 100% 6.9 mph NNE11.1 kmh NNE 8.0 mph12.9 kmh 30.03 in1016.9 mb 0.04 in1.0 mm 0.00 in/hr0.0 mm/hr 0.04 in1.0 mm
12:00 AM 47.5°F8.6°C 47.5°F8.6°C 100% 3.9 mph NNE6.3 kmh NNE 8.6 mph13.8 kmh 30.03 in1016.9 mb 0.04 in1.0 mm 0.00 in/hr0.0 mm/hr 0.04 in1.0 mm